Regional Weather Roundup
Issued by NWS Kansas City/Pleasant Hill, MO

Home | Current Version | Previous Version | Text Only | Print | Product List | Glossary On
Versions: 1 2 3 4 5 6 7 8 9 10 11 12 13 14 15 16 17 18 19 20 21 22 23 24 25 26 27 28 29 30 31 32 33 34 35 36 37 38 39 40 41 42 43 44 45 46 47 48 49 50
000
ASUS43 KEAX 280710
RWREAX

WEATHER ROUNDUP FOR EASTERN KANSAS AND NORTHWEST MISSOURI
NATIONAL WEATHER SERVICE KANSAS CITY/PLEASANT HILL MO
200 AM CDT SUN MAY 28 2017

KSZ040-057-103>105-MOZ028-029-037-043-280800-
...KANSAS CITY METROPOLITAN AREA...

CITY           SKY/WX    TMP DP  RH WIND       PRES   REMARKS
K.C. INTL      CLOUDY    62  60  93 N8        29.89R
K.C. DOWNTOWN  CLOUDY    65  61  87 N5        29.88R
LEES SUMMIT    CLOUDY    64  62  93 N7        29.87F
OLATHE - IXD   CLOUDY    63  60  90 NW8       29.89S
OLATHE - OJC   CLOUDY    63  62  97 NW9       29.88S
LAWRENCE       CLOUDY    61  60  97 NW8       29.90R

$$

MOZ001>008-011>017-020>025-030>033-038>040-044>046-053-054-280800-
...NORTHERN AND CENTRAL MISSOURI...

CITY           SKY/WX    TMP DP  RH WIND       PRES   REMARKS
ST. JOSEPH     CLEAR     59  59 100 N6        29.91R
MOSBY          CLOUDY    63  61  94 NW5       29.87S
WARRENSBURG    CLOUDY    61  59  94 NW7       29.84F
WHITEMAN AFB   CLOUDY    62  62 100 N8        29.82F
CLINTON        CLOUDY    59  59 100 CALM      29.84S
SEDALIA        CLOUDY    64  63  96 NW6       29.83F
WARSAW         NOT AVBL
CHILLICOTHE      N/A     62  60  93 VRB3      29.87R
KIRKSVILLE     CLOUDY    61  60  97 NW6       29.84R

$$

MOZ041-047>049-056>058-063>065-088>090-097-280800-
...EASTERN AND SOUTHERN MISSOURI...

CITY           SKY/WX    TMP DP  RH WIND       PRES   REMARKS
ST. LOUIS INTL CLOUDY    66  61  84 SW5       29.80R
SPIRIT OF STL  CLOUDY    63  62  97 S3        29.78F
COLUMBIA       CLOUDY    60  60 100 SW3       29.81S
JEFFERSON CITY CLOUDY    63  60  90 E3        29.81F
ROLLA          FOG       58  58 100 S6        29.81F VSB 1/2
SPRINGFIELD    CLOUDY    65  64  97 NW15G24   29.79F
BRANSON        CLOUDY    63  63 100 CALM      29.85R
JOPLIN         CLOUDY    66  65  96 N12       29.84S

$$

IAZ060-094-KSZ022-034>040-054-083-096-NEZ052-066-093-280800-
...KANSAS...SOUTHEAST NEBRASKA AND IOWA...

CITY           SKY/WX    TMP DP  RH WIND       PRES   REMARKS
TOPEKA         CLOUDY    62  60  93 NW8       29.91S
MANHATTAN      MOCLDY    60  58  92 CALM      29.96S
EMPORIA        PTCLDY    62  60  93 NW7       29.92F
CHANUTE        CLOUDY    66  61  84 NW9       29.90R
WICHITA        MOCLDY    65  62  90 NW5       29.96F
OMAHA          PTCLDY    58  52  80 NE3       29.92S
LINCOLN        PTCLDY    60  51  72 W3        29.95F
FALLS CITY     MOCLDY    58  56  93 CALM      29.92S
LAMONI         CLEAR     56  55  97 N7        29.89R
DES MOINES     CLOUDY    57  54  89 W5        29.88R

$$




USA.gov is the U.S. government's official web portal to all federal, state and local government web resources and services.